Miscellaneous Local Product
Issued by NWS North Platte, NE

Home | Current Version | Previous Version | Text Only | Print | Product List | Glossary On
Versions: 1 2 3 4 5 6 7 8 9 10 11 12 13 14 15 16 17 18 19 20 21 22 23 24 25 26 27 28 29 30 31 32 33 34 35 36 37 38 39 40 41 42 43 44 45 46 47 48 49 50
000
AXUS43 KLBF 030810
MISLBF


WESTERN AND NORTH CENTRAL NEBRASKA HOURLY WEATHER ROUNDUP
NATIONAL WEATHER SERVICE NORTH PLATTE NE
300 AM CDT SUN MAY 03 2015

***STATIONS NOT REPORTING VARIABLES SUCH AS SKY/WEATHER OR
PRESSURE ARE PROVIDED BY THE NEBRASKA DEPARTMENT OF
ROADS...RAWS...AND APRS NETWORKS...AND ARE NOT UNDER
NATIONAL WEATHER SERVICE QUALITY CONTROL***

...OBSERVATIONS IN AND NEAR THE EASTERN PANHANDLE OF NEBRASKA...

CITY           SKY/WX    TMP DP  RH WIND       PRES   REMARKS
PINE RIDGE     MOCLDY    45  38  76 E5        29.76F
CHADRON        MOCLDY    49  39  68 CALM      29.76F
ALLIANCE       PTCLDY    49  41  74 S3        29.79F
SIDNEY         CLEAR     51  42  71 W12       29.86F
WHITECLAY        N/A     43  35  73 S3          N/A
CRESCENT LAKE    N/A     57  38  50 SW6G20      N/A
BIG SPRINGS      N/A     57  46  68 W12         N/A
$$

...OBSERVATIONS IN NORTH CENTRAL NEBRASKA...

CITY           SKY/WX    TMP DP  RH WIND       PRES   REMARKS
VALENTINE      MOCLDY    53  39  59 W8        29.70S
THEDFORD       PTCLDY    61  43  52 W10       29.73F
AINSWORTH      MOCLDY    56  46  66 W6        29.69F
O`NEILL        PTCLDY    60  51  73 SE9       29.71S
ORD            PTCLDY    56  46  69 S5        29.70S
BROKEN BOW     CLEAR     63  41  44 W7        29.71F
BROWNLEE         N/A     60  34  37 CALM        N/A
VALENTINE NWR    N/A     58  38  48 W6          N/A
SPRINGVIEW       N/A     51  44  76 CALM        N/A
HALSEY           N/A     62  40  44 SW5G12      N/A
BREWSTER         N/A     62  42  48 W5          N/A
ROSE             N/A     54  47  78 MISG        N/A
NEWPORT          N/A     60  51  71 SE8         N/A
SARGENT          N/A     52  43  72 CALM        N/A
COMSTOCK         N/A     63  46  52 CALM        N/A
EWING            N/A     58  53  85 E3          N/A
$$

...OBSERVATIONS IN SOUTHWEST NEBRASKA AND FAR NORTHEAST COLORADO...

CITY           SKY/WX    TMP DP  RH WIND       PRES   REMARKS
WRAY           FAIR      55  46  73 W12       29.85F
IMPERIAL       PTCLDY    57  42  57 W9        29.80F
OGALLALA       MOCLDY    58  46  65 SW9       29.78S
NORTH PLATTE   PTCLDY    52  45  77 CALM      29.76F
MCCOOK         MOCLDY    58  45  62 SW6       29.76S
LEXINGTON      PTCLDY    54  46  74 W3        29.75R
PAXTON           N/A     58  46  65 SW3         N/A
SUTHERLAND       N/A     56  42  61 W7          N/A
GOTHENBURG       N/A     61  42  49 CALM        N/A
CALLAWAY         N/A     62  46  56 W6          N/A
$$

...NORTH PLATTE AREA...

CITY           SKY/WX    TMP DP  RH WIND       PRES   REMARKS
AIRPORT        PTCLDY    52  45  77 CALM      29.76F
DOWNTOWN         N/A     57  44  63 CALM        N/A
$$

...SOME WEATHER OBSERVATIONS FROM AROUND THE REGION...

CITY           SKY/WX    TMP DP  RH WIND       PRES   REMARKS
DENVER         MOCLDY    52  39  61 SW17      29.94F
LARAMIE        CLOUDY    47  35  63 S8        30.02S
CHEYENNE       CLOUDY    56  34  43 W17       29.93F
SCOTTSBLUFF    CLOUDY    56  41  57 N3        29.81F
RAPID CITY     MOCLDY    53  32  44 NW9       29.77S
PIERRE         CLEAR     56  31  38 CALM      29.65F
WINNER         FAIR      62  38  40 SW6       29.69F
SIOUX FALLS    CLOUDY    62  54  74 S9        29.69F
OMAHA          TSTM      61  59  93 SE7       29.83S
GRAND ISLAND   CLEAR     66  51  58 S12       29.72F
KANSAS CITY    CLOUDY    66  52  60 S21       29.85F
WICHITA        CLOUDY    65  55  70 S14       29.85F
HAYS           CLOUDY    64  48  55 SW9       29.78F
LIBERAL        CLOUDY    63  45  51 SW8       29.87F
GOODLAND       CLOUDY    57  45  64 W13       29.82F
$$



USA.gov is the U.S. government's official web portal to all federal, state and local government web resources and services.